Probability
3 3 2 1 0 0 0 0 0 0 0 0 0 0 0 0 0 0 0 0 0 0 0 0 0 0 0 0 0 0 0 0 0 0 0 0 0 0 0 0 0 0 0
3 3 3 1 0 0 0 0 0 0 0 0 0 0 0 0 0 0 0 0 0 0 0 0 0 0 0 0 0 0 0 0 0 0 0 0 0 0 0 0 0 0 0
3 3 3 2 0 0 0 0 0 0 0 0 0 0 0 0 0 0 0 0 0 0 0 0 0 0 0 0 0 0 0 0 0 0 0 0 0 0 0 0 0 0 0
2 2 2 1 0 0 0 0 0 0 0 0 0 0 0 0 0 0 0 0 0 0 0 0 0 0 0 0 0 0 0 0 0 0 0 0 0 0 0 0 0 0 0
1 1 1 0 0 0 0 0 0 0 0 0 0 0 0 0 0 0 0 0 0 0 0 0 0 0 0 0 0 0 0 0 0 0 0 0 0 0 0 0 0 0 0
0 0 0 0 0 0 0 0 0 0 0 0 0 0 0 0 0 0 0 0 0 0 0 0 0 0 0 0 0 0 0 0 0 0 0 0 0 0 0 0 0 0 0
0 0 0 0 0 0 0 0 0 0 0 0 0 0 0 0 0 0 0 0 0 0 0 0 0 0 0 0 0 0 0 0 0 0 0 0 0 0 0 0 0 0 0
0 0 0 0 0 0 0 0 0 0 0 0 0 0 0 0 0 0 0 0 0 0 0 0 0 0 0 0 0 0 0 0 0 0 0 0 0 0 0 0 0 0 0
0 0 0 0 0 0 0 0 0 0 0 0 0 0 0 0 0 0 0 0 0 0 0 0 0 0 0 0 0 0 0 0 0 0 0 0 0 0 0 0 0 0 0
0 0 0 0 0 0 0 0 0 0 0 0 0 0 0 0 0 0 0 0 0 0 0 0 0 0 0 0 0 0 0 0 0 0 0 0 0 0 0 0 0 0 0
0 0 0 0 0 0 0 0 0 0 0 0 0 0 0 0 0 0 0 0 0 0 0 0 0 0 0 0 0 0 0 0 0 0 0 0 0 0 0 0 0 0 0
0 0 0 0 0 0 0 0 0 0 0 0 0 0 0 0 0 0 0 0 0 0 0 0 0 0 0 0 0 0 0 0 0 0 0 0 0 0 0 0 0 0 0
0 0 0 0 0 0 0 0 1 0 0 0 0 0 0 0 0 0 0 0 0 0 0 0 0 0 0 0 0 0 0 0 0 0 0 0 0 0 0 0 0 0 0
0 0 0 0 0 0 0 0 0 0 0 0 0 0 0 0 0 0 0 0 0 0 0 0 0 0 0 0 0 0 0 0 0 0 0 0 0 0 0 0 0 0 0
0 0 0 0 0 0 0 0 0 0 0 0 0 0 0 0 0 0 0 0 0 0 0 0 0 0 0 0 0 0 0 0 0 0 0 0 0 0 0 0 0 0 0
0 0 0 0 0 0 0 0 0 1 1 1 0 0 0 0 0 0 0 0 0 0 0 0 0 0 0 0 0 0 0 0 0 0 0 0 0 0 0 0 0 0 0
0 0 0 0 0 0 0 0 0 1 2 1 0 0 0 0 0 0 0 0 0 0 0 0 0 0 0 0 0 0 0 0 0 0 0 0 0 0 0 0 0 0 0
0 0 0 0 0 0 0 0 0 1 1 0 0 0 0 0 0 0 0 0 0 0 0 0 0 0 0 0 0 0 0 0 0 0 0 0 0 0 0 0 0 0 0
0 0 0 0 0 0 0 0 0 0 0 0 0 0 0 0 0 0 0 0 0 0 0 0 0 0 0 0 0 0 0 0 0 0 0 0 0 0 0 0 0 0 0
0 0 0 0 0 0 0 0 0 0 0 0 0 0 0 0 0 0 0 0 0 0 0 0 0 0 0 0 0 0 0 0 0 0 0 0 0 0 0 0 0 0 0
0 0 0 0 0 0 0 0 0 0 0 0 0 0 0 0 0 0 0 0 0 0 0 0 0 0 0 0 0 0 0 0 0 0 0 0 0 0 0 0 0 0 0
0 0 0 0 0 0 0 0 0 0 0 0 0 0 0 0 0 0 0 0 0 0 0 0 0 0 0 0 0 0 0 0 0 0 0 0 0 0 0 0 0 0 0
0 0 0 0 0 0 0 0 0 0 0 0 0 0 0 0 0 0 0 0 0 0 0 0 0 0 0 0 0 0 0 0 0 0 0 0 0 0 0 0 0 0 0
0 0 0 0 0 0 0 0 0 0 0 0 0 0 0 0 0 0 0 0 0 0 0 0 0 0 0 0 0 0 0 0 0 0 0 0 0 0 0 0 0 0 0
0 0 0 0 0 0 0 0 0 0 0 0 0 0 0 0 0 0 0 0 0 0 0 0 0 0 0 0 0 0 0 0 0 0 0 0 0 0 0 0 0 0 0
0 0 0 0 0 0 0 0 0 0 0 0 0 0 0 0 0 0 0 0 0 0 0 0 0 0 0 0 0 0 0 0 0 0 0 0 0 0 0 0 0 0 0
Wind_Speed
4 3 2 2 2 2 2 2 2 3 3 3 3 3 3 3 3 3 2 7 9 8 9 9 9 9 9 9 10 10 11 11 12 12 12 13 13 13 13 13 14 14 15
4 4 3 2 2 2 2 2 3 2 2 2 3 3 3 2 3 3 3 5 8 9 9 9 9 9 9 10 10 11 11 12 12 12 13 13 13 13 14 14 14 15 15
4 4 3 3 2 2 3 3 3 3 3 3 3 2 2 2 2 3 3 3 4 8 10 10 10 9 10 10 11 11 11 12 12 13 13 13 13 14 14 14 15 15 16
5 4 3 2 2 2 2 3 2 3 2 2 2 2 2 2 3 2 3 3 3 3 6 9 9 10 10 11 11 12 12 12 13 13 14 14 14 14 15 15 16 16 17
5 4 3 2 3 3 2 2 2 2 2 2 2 2 2 2 2 2 3 3 3 3 3 6 9 10 11 12 12 12 13 13 13 13 14 14 15 15 16 16 17 17 18
5 4 3 3 3 3 2 2 3 2 2 1 2 2 2 2 2 2 2 2 3 3 3 3 4 6 10 12 13 13 13 13 14 14 14 15 15 16 16 17 17 18 18
4 4 3 3 3 3 3 3 2 3 2 1 2 2 2 2 1 1 1 2 2 3 3 3 2 3 4 10 13 13 14 14 14 15 15 16 16 17 17 18 18 18 19
4 4 4 4 3 3 3 3 3 2 2 1 2 2 2 3 2 1 1 1 2 2 2 3 2 3 3 3 8 14 14 15 15 15 16 17 17 17 18 18 19 19 19
3 3 4 4 4 4 3 3 3 4 2 1 1 3 2 2 2 2 1 1 2 2 2 2 2 3 4 4 5 10 15 16 16 16 16 17 17 18 18 18 19 19 19
3 3 4 4 4 3 3 3 3 2 4 2 1 2 1 2 1 2 3 2 2 2 2 2 2 3 3 3 7 12 15 16 16 16 17 17 17 18 18 18 19 19 19
3 3 4 4 3 3 3 3 3 2 2 3 2 1 1 2 1 1 3 4 3 2 2 2 2 2 3 4 5 9 15 15 16 17 17 17 18 18 19 19 19 19 20
2 3 3 3 3 3 3 3 3 3 2 3 2 2 2 2 1 1 2 3 4 3 3 2 1 2 3 4 7 13 14 15 16 17 17 17 17 18 19 19 19 19 20
2 3 3 4 3 3 3 3 3 3 3 3 2 1 1 1 1 2 1 2 3 3 3 2 1 2 4 4 6 14 13 15 16 16 17 17 17 17 18 19 19 19 19
3 4 4 3 4 4 4 3 2 2 2 3 2 2 1 1 1 1 2 1 2 3 2 3 2 2 4 4 8 13 9 15 16 16 16 16 17 17 17 18 18 19 19
3 4 4 4 3 3 4 4 3 3 3 2 2 2 1 1 1 1 1 1 1 2 4 3 3 3 5 5 9 7 7 13 16 16 16 16 16 17 17 17 18 18 19
3 4 4 4 4 3 3 3 3 3 3 2 2 2 1 1 0 0 0 0 1 2 3 3 3 5 6 6 10 7 8 15 15 16 16 16 16 17 17 17 18 18 19
4 5 5 4 4 4 4 3 3 3 3 2 2 2 1 1 1 0 0 0 0 1 3 4 3 4 5 7 8 7 7 7 8 15 16 16 16 17 17 17 17 18 19
4 4 5 4 4 4 4 4 4 3 3 3 2 2 1 1 0 0 0 0 1 1 2 5 4 4 5 6 7 8 8 7 7 13 15 16 16 17 17 17 17 17 18
4 4 4 4 4 4 4 4 4 3 3 2 2 2 1 1 0 1 1 1 1 2 2 3 5 4 4 5 7 7 7 6 7 10 13 14 16 17 17 17 17 17 18
4 5 4 4 4 4 4 4 4 3 3 2 2 2 1 2 2 1 1 1 1 2 2 3 4 4 4 5 5 7 8 7 7 7 9 11 14 16 17 17 17 17 18
4 5 5 4 3 4 4 4 4 4 3 2 1 1 1 1 1 1 1 1 1 2 2 3 4 4 5 6 6 6 8 8 7 4 6 7 8 7 8 13 15 17 18
4 4 4 4 3 2 5 7 5 4 3 2 1 0 0 0 1 2 3 3 2 2 3 3 3 5 6 6 6 6 7 8 7 4 7 8 6 7 7 6 13 18 18
3 4 3 4 3 3 5 5 6 4 3 2 2 1 0 1 1 1 2 3 4 5 4 3 4 5 6 6 6 6 6 7 7 7 6 7 5 7 7 9 16 16 17
3 3 3 3 3 2 4 4 5 4 3 2 1 1 1 1 2 1 1 2 2 3 4 3 3 5 5 5 5 5 6 6 6 4 3 5 5 6 8 7 12 14 17
2 3 3 3 3 2 3 3 4 3 2 1 1 1 0 1 2 3 2 2 3 4 5 7 7 7 8 8 7 4 5 5 7 5 2 3 5 7 6 5 7 14 16
2 3 3 2 2 2 2 3 3 3 2 1 1 0 1 1 2 3 1 1 3 4 4 5 6 6 5 6 8 4 3 4 5 5 3 4 5 6 7 4 4 6 8
Wind_Direction
127 115 102 92 86 84 88 83 81 77 72 66 65 74 70 56 48 38 18 34 38 40 40 35 31 27 22 17 14 8 3 359 355 352 348 343 339 338 337 336 334 332 329
133 127 117 105 96 93 94 98 93 89 79 76 68 68 71 62 55 48 33 28 34 36 33 29 28 24 18 15 9 3 357 351 348 346 345 343 339 336 334 332 331 328 326
137 133 128 118 113 106 100 92 82 78 77 69 65 63 67 62 59 51 39 31 24 29 30 29 25 20 16 10 3 358 352 348 346 343 342 340 340 337 334 332 328 326 325
138 132 130 128 123 112 106 103 92 77 66 65 63 50 52 55 52 48 43 36 27 22 20 24 23 19 14 6 359 354 349 346 343 340 338 336 334 334 333 331 329 326 324
141 136 134 131 125 110 104 105 86 94 86 62 62 54 40 44 40 46 44 34 27 23 14 15 18 16 10 2 355 350 345 342 339 337 336 333 331 331 330 329 327 325 324
144 136 131 128 124 115 102 97 97 75 87 81 69 50 27 25 35 41 34 25 20 18 13 11 8 2 2 358 351 345 342 339 337 336 335 333 332 329 328 326 325 324 322
146 144 138 136 132 129 129 123 111 91 62 56 73 34 7 20 33 25 22 22 14 5 6 6 1 353 346 354 350 346 344 340 338 337 335 332 330 328 326 325 324 323 322
154 156 150 149 143 132 125 124 120 105 72 45 98 94 8 344 345 5 357 4 354 354 357 357 351 350 344 341 342 347 344 342 338 335 333 330 328 326 325 325 323 323 322
157 153 154 149 152 149 153 152 141 129 132 55 60 119 132 238 303 318 322 341 341 339 332 334 348 347 350 345 333 341 343 341 337 333 330 329 328 326 325 325 324 324 324
161 155 152 150 154 155 155 161 148 142 140 145 73 50 108 149 150 311 313 316 321 309 308 329 334 337 343 339 336 339 341 341 337 333 330 329 328 327 327 326 325 325 323
168 163 159 154 152 152 153 148 140 141 144 148 146 131 92 66 96 162 290 313 322 299 298 302 310 322 329 334 328 333 341 340 338 335 332 329 328 328 328 327 326 325 324
175 173 160 155 157 152 155 157 151 149 143 134 135 135 140 145 167 169 243 293 303 301 306 297 302 313 324 333 329 337 339 338 336 335 335 330 327 328 327 327 326 325 324
189 191 172 165 162 158 153 146 144 148 146 142 147 149 143 152 155 164 189 277 294 298 306 304 296 319 335 332 325 337 333 333 333 334 334 334 330 328 328 328 327 327 328
190 177 170 165 161 153 148 142 141 149 139 135 134 134 133 142 148 161 167 192 310 305 298 296 312 311 329 325 326 336 325 328 330 332 333 334 335 334 332 331 331 330 329
166 160 160 157 154 150 147 145 149 150 141 139 141 133 121 123 128 142 160 171 181 290 291 294 305 312 326 323 325 326 318 321 330 332 333 333 333 333 332 332 331 331 328
159 153 154 153 146 142 142 142 143 145 138 140 137 128 111 118 117 96 147 192 201 227 275 287 288 304 317 322 326 324 315 326 328 330 332 332 333 333 333 333 333 331 329
160 158 157 153 149 146 144 143 150 152 148 139 132 135 131 120 114 66 67 324 283 239 269 291 290 304 307 318 325 321 318 316 319 328 329 332 333 333 333 334 332 331 329
164 158 150 147 148 146 147 150 154 157 157 155 149 140 141 108 101 50 263 268 268 258 259 293 304 310 310 317 319 320 324 323 317 323 328 331 332 332 332 332 333 332 331
152 147 144 147 148 148 147 149 151 152 157 162 162 162 171 158 209 273 270 277 284 297 274 283 303 309 312 321 325 321 320 316 319 322 327 331 331 332 332 333 334 333 332
150 146 144 145 147 149 150 152 150 148 145 149 164 169 182 192 218 240 261 272 291 306 309 306 308 317 317 320 325 328 328 327 322 321 326 327 327 330 331 331 332 332 333
148 142 135 134 137 149 158 157 154 148 145 143 140 159 204 214 277 292 314 284 300 314 318 318 317 321 322 330 330 324 321 322 315 313 322 320 321 320 322 326 329 331 334
133 132 136 140 146 162 168 161 147 147 145 147 145 121 201 228 310 320 315 316 324 318 311 310 308 312 311 314 315 320 322 328 322 326 328 316 316 314 316 318 326 331 336
131 132 136 140 150 170 170 162 147 136 140 154 159 153 338 312 340 291 308 335 325 321 310 295 291 296 297 303 311 315 317 314 303 308 320 307 311 311 314 319 326 331 338
142 140 139 141 139 164 166 154 139 122 127 140 161 176 193 276 294 323 348 338 323 316 311 302 277 284 294 301 301 303 301 303 294 295 306 299 310 311 313 312 324 334 340
137 135 137 135 138 158 165 149 123 127 126 130 155 158 191 245 300 356 15 340 332 328 338 338 332 328 331 333 336 335 331 330 322 316 320 304 309 315 307 302 319 333 337
134 127 122 131 141 151 158 150 128 137 137 134 115 179 289 323 334 355 5 330 324 325 336 344 345 342 340 340 346 344 326 325 322 314 326 327 315 327 316 303 313 325 330